Weather History for KLNR - March, 2013

Change the Weather History Date:

Tuesday, March 26, 2013

  Actual Average Record
Temperature  
Mean Temperature 36 °F -  
Max Temperature 42 °F 48 °F 81 °F (2007)
Min Temperature 30 °F 30 °F 12 °F (2001)
Degree Days  
Heating Degree Days 29    
Moisture  
Dew Point 21 °F    
Average Humidity 56    
Maximum Humidity 67    
Minimum Humidity 46    
Precipitation  
Precipitation 0.00 in - - ()
Sea Level Pressure  
Sea Level Pressure 30.22 in    
Wind  
Wind Speed 7 mph (NW)    
Max Wind Speed 14 mph    
Max Gust Speed 17 mph    
Visibility 10 miles    
Events      
Averages and records for this station are not official NWS values.
T = Trace of Precipitation, MM = Missing Value Source: NWS Daily Summary

Daily Weather History Graph

Daily Weather History Graph

Search for Another Location

Airport or City:

Trip Planner

Search our weather history database for the weather conditions in past years. The results will help you decide how hot, cold, wet, or windy it might be!

Date:

Astronomy

Mar. 26, 2013 Rise Set
Actual Time 6:52 AM CDT 7:20 PM CDT
Civil Twilight 6:24 AM CDT 7:49 PM CDT
Nautical Twilight 5:50 AM CDT 8:22 PM CDT
Astronomical Twilight 5:16 AM CDT 8:57 PM CDT
Moon 6:57 PM CDT (3/26) 6:09 AM CDT (3/26)
Length of Visible Light 13h 24m
Length of Day
12h 27m
Waxing Gibbous, 99% of the Moon is Illuminated
Mar 26
Waxing Gibbous
Mar 27
Full
Apr 2
Last Quarter
Apr 10
New
Apr 18
First Quarter

Hourly Weather History & Observations

Time (CDT) Temp. Windchill Dew Point Humidity Pressure Visibility Wind Dir Wind Speed Gust Speed Precip Events Conditions
12:56 AM 34.0 °F 28.8 °F 18.0 °F 52% 30.15 in 10.0 mi NW 5.8 mph - N/A   Overcast
1:56 AM 33.1 °F 27.7 °F 19.0 °F 56% 30.16 in 10.0 mi NNW 5.8 mph - N/A   Overcast
2:56 AM 33.1 °F 26.1 °F 19.0 °F 56% 30.16 in 10.0 mi NW 8.1 mph - N/A   Overcast
3:56 AM 32.0 °F 26.4 °F 19.0 °F 59% 30.17 in 10.0 mi NW 5.8 mph - N/A   Overcast
4:56 AM 30.9 °F 22.2 °F 19.0 °F 61% 30.17 in 10.0 mi NNW 10.4 mph - N/A   Overcast
5:56 AM 30.0 °F 22.4 °F 19.9 °F 66% 30.19 in 10.0 mi NW 8.1 mph - N/A   Overcast
6:56 AM 30.0 °F 23.2 °F 19.9 °F 66% 30.20 in 10.0 mi NNW 6.9 mph - N/A   Overcast
7:56 AM 30.0 °F 23.2 °F 19.9 °F 66% 30.22 in 10.0 mi NNW 6.9 mph - N/A   Overcast
8:56 AM 32.0 °F 24.2 °F 19.9 °F 61% 30.24 in 10.0 mi NNW 9.2 mph - N/A   Overcast
9:56 AM 33.1 °F 27.7 °F 19.9 °F 59% 30.25 in 10.0 mi NNW 5.8 mph - N/A   Overcast
10:56 AM 35.1 °F 28.6 °F 21.0 °F 57% 30.25 in 10.0 mi NW 8.1 mph - N/A   Overcast
11:56 AM 37.0 °F 29.8 °F 21.9 °F 54% 30.24 in 10.0 mi NNW 10.4 mph 17.3 mph N/A   Mostly Cloudy
12:56 PM 39.0 °F 33.4 °F 23.0 °F 53% 30.24 in 10.0 mi North 8.1 mph - N/A   Mostly Cloudy
1:56 PM 39.9 °F 32.9 °F 23.0 °F 51% 30.23 in 10.0 mi NW 11.5 mph 17.3 mph N/A   Overcast
2:56 PM 39.9 °F 33.9 °F 23.0 °F 51% 30.23 in 10.0 mi WNW 9.2 mph - N/A   Overcast
3:56 PM 42.1 °F 35.2 °F 24.1 °F 49% 30.22 in 10.0 mi WNW 12.7 mph - N/A   Mostly Cloudy
4:56 PM 39.9 °F 32.1 °F 21.0 °F 47% 30.23 in 10.0 mi NNW 13.8 mph - N/A   Overcast
5:56 PM 39.0 °F 34.8 °F 19.9 °F 46% 30.24 in 10.0 mi NW 5.8 mph - N/A   Overcast
6:56 PM 37.9 °F 31.5 °F 19.9 °F 48% 30.25 in 10.0 mi WNW 9.2 mph - N/A   Overcast
7:56 PM 37.0 °F 33.3 °F 19.0 °F 48% 30.25 in 10.0 mi NW 4.6 mph - N/A   Overcast
8:56 PM 36.0 °F 32.1 °F 19.9 °F 52% 30.26 in 10.0 mi NW 4.6 mph - N/A   Overcast
9:56 PM 35.1 °F 32.2 °F 21.9 °F 59% 30.27 in 10.0 mi NW 3.5 mph - N/A   Overcast
10:56 PM 36.0 °F 32.1 °F 21.0 °F 55% 30.27 in 10.0 mi NW 4.6 mph - N/A   Overcast
11:56 PM 34.0 °F 28.8 °F 24.1 °F 67% 30.28 in 10.0 mi WSW 5.8 mph - N/A   Overcast